Regional Weather Roundup
Issued by NWS

Home | Current Version | Previous Version | Text Only | Print | Product List | Glossary Off
Versions: 1 2 3 4 5 6 7 8 9 10 11 12 13 14 15 16 17 18 19 20 21 22 23 24 25 26 27 28 29 30 31 32 33 34 35 36 37 38 39 40 41 42 43 44 45 46 47 48 49 50

000
ASUS43 KLOT 232009
RWRIL

ILLINOIS REGIONAL WEATHER ROUNDUP
NATIONAL WEATHER SERVICE CHICAGO/ROMEOVILLE IL
300 PM CDT TUE MAY 23 2017

NOTE: "FAIR" INDICATES FEW OR NO CLOUDS BELOW 12,000 FEET WITH NO
SIGNIFICANT WEATHER AND/OR OBSTRUCTIONS TO VISIBILITY.

* THESE STATIONS ARE NOT UNDER NWS QUALITY CONTROL. THEY ALSO MAY NOT
  REPORT WEATHER SUCH AS PRECIPITATION OR FOG.

ILZ001-002-007-009-015-016-024-232100-
NORTHWEST ILLINOIS

CITY           SKY/WX    TMP DP  RH WIND       PRES   REMARKS
MOLINE         PTSUNNY   61  55  81 NW9       29.72F
STERLING*      LGT RAIN  58  56  93 CALM      29.73F
SAVANNA*       LGT RAIN  59  53  79 W8        29.73S
$$

ILZ003-004-008-010-011-017-018-232100-
NORTH CENTRAL ILLINOIS

CITY           SKY/WX    TMP DP  RH WIND       PRES   REMARKS
ROCKFORD       LGT RAIN  57  55  93 W6        29.74S FOG
FREEPORT*      CLOUDY    57  53  86 S6        29.74F
ROCHELLE*      DRIZZLE   59  55  87 S10       29.73F
DE KALB*       DRIZZLE   60  56  87 S12       29.74F
PERU*          LGT RAIN  56  54  92 S7        29.74S
$$

ILZ005-006-012>014-019>023-232100-
NORTHEAST ILLINOIS

CITY           SKY/WX    TMP DP  RH WIND       PRES   REMARKS
CHICAGO-OHARE  LGT RAIN  61  55  81 CALM      29.73F
CHICAGO-MIDWAY CLOUDY    65  53  65 SE5       29.73F
AURORA         LGT RAIN  59  57  93 S6        29.75S FOG
LANSING*       CLOUDY    63  56  79 SE6       29.74S
JOLIET*        RAIN      62  57  85 CALM      29.74F
WAUKEGAN       CLOUDY    58  55  90 SE5       29.73F
DUPAGE AIRPORT LGT RAIN  59  58  96 S7        29.74S FOG
KANKAKEE*      RAIN      64  56  75 CALM      29.74F
WHEELING       LGT RAIN  61  57  87 SW3       29.75S
MORRIS*        LGT RAIN  59  56  88 CALM      29.73F
ROMEOVILLE*    RAIN      60  58  92 SW5       29.75S
NORTHERLY ISL    N/A     57  53  86 E3          N/A
$$

LMZ740>746-232100-
SOUTHERN LAKE MICHIGAN

STATION/POSITION SKY/WX   TEMP    WIND        PRES    VSBY  WAVE
                          AIR SEA DIR/SP/G                  HT/PER
                          (F)     (DEG/KT/KT) (MB)    (MI)  (FT/S)
SOUTHERN BUOY              48 45  140/  8/ 10 1008.4          1
WILMETTE HARBOR            53 54                N/A           1
HARRISON CRIB              57     120/ 11/ 11   N/A
BURNHAM HARBOR             57     160/  3/  7   N/A
CALUMET HARBOR             58      50/  5/  8 1007.0F
BURNS HARBOR               58      80/ 10/ 11 1007.8F
MICHIGAN CITY              57      30/ 11/ 12   N/A
MICHIGAN CITY 6N           55 54   70/  6/  8   N/A           1
ST. JOSEPH                 58 56   70/  4/  6 1007.9          0
$$

ILZ025>027-034>036-040-047-049-050-058-095>099-232100-
WEST-CENTRAL ILLINOIS

CITY           SKY/WX    TMP DP  RH WIND       PRES   REMARKS
QUINCY         MOSUNNY   63  54  72 W12       29.75S
GALESBURG*     CLOUDY    60  55  82 NW5       29.72F
MACOMB*        CLOUDY    61  54  76 W10       29.76S
JACKSONVILLE*  DRIZZLE   61  56  83 W3        29.74F
PITTSFIELD*    CLOUDY    61  56  84 W5        29.76F
$$

ILZ028>032-037-038-041>044-048-051>054-059>061-232100-
CENTRAL ILLINOIS

CITY           SKY/WX    TMP DP  RH WIND       PRES   REMARKS
PONTIAC        CLOUDY    61  59  92 CALM      29.74F
BLOOMINGTON    LGT RAIN  61  56  83 N5        29.74F
DECATUR        CLOUDY    64  57  78 E7        29.72F
PEORIA         LGT RAIN  61  56  83 SW5       29.74S
LACON*         CLOUDY    58  57  97 SW7       29.73S
LINCOLN*       CLOUDY    63  58  86 CALM      29.73F
SPRINGFIELD    CLOUDY    63  58  83 CALM      29.73F
TAYLORVILLE    LGT RAIN  64  59  85 N9        29.72F
$$

ILZ033-039-045-046-055>057-062-063-232100-
EAST-CENTRAL ILLINOIS

CITY           SKY/WX    TMP DP  RH WIND       PRES   REMARKS
CHAMPAIGN      PTSUNNY   70  50  49 S7        29.72F
RANTOUL*       CLOUDY    70  52  52 S7        29.72F
MATTOON        CLOUDY    70  52  52 CALM      29.71F
PARIS*         CLOUDY    70  53  54 CALM      29.73F
$$

ILZ079-100>102-232100-
SOUTHWEST ILLINOIS

CITY           SKY/WX    TMP DP  RH WIND       PRES   REMARKS
ALTON          CLOUDY    64  57  77 N9        29.73F
BELLEVILLE     CLOUDY    65  60  86 NW7       29.73S
CAHOKIA*       CLOUDY    69  53  56 SW3       29.72F
SPARTA*        CLOUDY    67  59  73 NW9       29.73S
$$

ILZ064>066-069>071-074>076-080>082-084>086-088>090-092>094-232100-
SOUTH-CENTRAL ILLINOIS

CITY           SKY/WX    TMP DP  RH WIND       PRES   REMARKS
CARBONDALE     CLOUDY    72  55  55 SW7       29.71F
CAIRO*         CLOUDY    73  55  52 NW3       29.71F
EFFINGHAM*     PTSUNNY   71  54  54 CALM      29.73F
CENTRALIA*     CLOUDY    72  55  54 S6        29.70F
SALEM*         PTSUNNY   73  52  47 SW3       29.70F
METROPOLIS*    CLOUDY    75  53  46 W6        29.71F
$$

ILZ067-068-072-073-078-083-087-091-232100-
SOUTHEAST ILLINOIS

CITY           SKY/WX    TMP DP  RH WIND       PRES   REMARKS
LAWRENCEVILLE  CLOUDY    73  50  44 NW7       29.71F
FLORA*         CLOUDY    74  51  44 SW5       29.71F
FAIRFIELD*     CLOUDY    72  48  43 CALM      29.71S
HARRISBURG*    CLOUDY    72  54  53 W5        29.71F
ROBINSON*      CLOUDY    71  45  38 CALM      29.72F
CARMI*         CLOUDY    74  51  44 CALM      29.70F
$$

ABBREVIATIONS USED IN REMARKS
   TC - TEMPERATURE IN CELSIUS
  WCI - WIND CHILL INDEX
   HX - HEAT INDEX
  VSB - VISIBILITY
$$





USA.gov is the U.S. government's official web portal to all federal, state and local government web resources and services.